Location: Ernez
(36.4595°N, 29.8755°E)
Time: 08:45:14
(UTC+00:00)

Cosmos 1428 Rocket - Pass Details

Date: 13 November 2025
Orbit: 947 x 986 km, 82.9° (Epoch: 05 December)

Event Time Altitude Azimuth Distance (km) Brightness Sun altitude
Rises 17:04:05 0° 354° (N) 3,676 7.6 -26.4°
Reaches altitude 10° 17:06:36 10° 355° (N) 2,730 6.8 -26.9°
Maximum altitude 17:12:52 82° 83° (E) 995 4.3 -28.1°
Enters shadow 17:15:29 38° 167° (SSE) 1,453 5.2 -28.7°
Exits shadow 17:17:13 21° 170° (S) 2,025 6.0 -29.0°
Drops below altitude 10° 17:19:09 10° 172° (S) 2,731 6.8 -29.4°
Sets 17:21:40 0° 173° (S) 3,678 7.5 -29.9°
